| time (UTC) | temp C | wind direction | speed KPH | gust KPH | rain 1hr cm | rain 24hr cm | rain mn cm | humidity % | barometer mb |
| 20260505193058 | 13 | 277 | 0.0 | 1.6 | 0.00 | 0.05 | 0.05 | 86 | 1013.9 |
| 20260505191601 | 13 | 250 | 0.0 | 1.6 | 0.00 | 0.05 | 0.05 | 85 | 1014.1 |
| 20260505190057 | 13 | 284 | 0.0 | 0.0 | 0.00 | 0.05 | 0.05 | 85 | 1014.3 |
| 20260505184557 | 13 | 311 | 0.0 | 0.0 | 0.00 | 0.05 | 0.05 | 84 | 1014.3 |
| 20260505183101 | 14 | 312 | 0.0 | 0.0 | 0.00 | 0.05 | 0.05 | 82 | 1014.3 |
| 20260505181554 | 15 | 307 | 0.0 | 0.0 | 0.00 | 0.05 | 0.05 | 80 | 1014.1 |
| 20260505180053 | 15 | 264 | 0.0 | 1.6 | 0.00 | 0.05 | 0.05 | 80 | 1013.9 |
| 20260505174557 | 15 | 265 | 0.0 | 1.6 | 0.00 | 0.05 | 0.05 | 79 | 1014.1 |
| 20260505173051 | 15 | 166 | 0.0 | 1.6 | 0.00 | 0.05 | 0.05 | 79 | 1013.9 |
| 20260505171549 | 15 | 209 | 0.0 | 8.0 | 0.00 | 0.05 | 0.05 | 78 | 1013.6 |
| 20260505170048 | 15 | 201 | 0.0 | 6.4 | 0.00 | 0.05 | 0.05 | 78 | 1013.5 |
| 20260505164559 | 15 | 216 | 0.0 | 8.0 | 0.00 | 0.10 | 0.05 | 77 | 1013.1 |
| 20260505163054 | 15 | 246 | 0.0 | 6.4 | 0.00 | 0.10 | 0.05 | 77 | 1012.8 |
| 20260505161547 | 15 | 304 | 0.0 | 9.7 | 0.00 | 0.10 | 0.05 | 76 | 1012.7 |
| 20260505153104 | 16 | 218 | 3.2 | 17.7 | 0.00 | 0.15 | 0.05 | 73 | 1012.5 |
| 20260505151554 | 16 | 218 | 1.6 | 8.0 | 0.00 | 0.15 | 0.05 | 71 | 1012.1 |
| 20260505123036 | 17 | 135 | 0.0 | 12.9 | 0.00 | 0.15 | 0.05 | 68 | 1011.8 |
| 20260505121538 | 17 | 220 | 1.6 | 17.7 | 0.00 | 0.15 | 0.05 | 65 | 1011.8 |
| 20260505120036 | 17 | 220 | 3.2 | 12.9 | 0.00 | 0.15 | 0.05 | 61 | 1011.8 |
| 20260505114539 | 17 | 247 | 0.0 | 9.7 | 0.00 | 0.15 | 0.05 | 64 | 1012.0 |
| 20260505113033 | 16 | 260 | 0.0 | 9.7 | 0.00 | 0.15 | 0.05 | 65 | 1012.2 |
| 20260505111535 | 16 | 214 | 0.0 | 1.6 | 0.00 | 0.15 | 0.05 | 66 | 1012.4 |
| 20260505101530 | 18 | 301 | 0.0 | 1.6 | 0.00 | 0.15 | 0.05 | 60 | 1012.9 |
| 20260505100033 | 17 | 303 | 0.0 | 1.6 | 0.00 | 0.15 | 0.05 | 62 | 1013.1 |
| 20260505094521 | 17 | 232 | 0.0 | 6.4 | 0.00 | 0.15 | 0.05 | 67 | 1013.2 |
| 20260505093019 | 16 | 304 | 0.0 | 6.4 | 0.00 | 0.15 | 0.05 | 70 | 1013.4 |
| 20260505091517 | 17 | 314 | 0.0 | 4.8 | 0.00 | 0.15 | 0.05 | 72 | 1013.4 |
| 20260505090013 | 16 | 261 | 0.0 | 0.0 | 0.00 | 0.15 | 0.05 | 81 | 1013.5 |
| 20260505084509 | 15 | 308 | 0.0 | 8.0 | 0.00 | 0.15 | 0.05 | 87 | 1013.5 |
| 20260505083004 | 14 | 244 | 0.0 | 8.0 | 0.00 | 0.15 | 0.05 | 93 | 1013.6 |
| 20260505081502 | 13 | 297 | 0.0 | 3.2 | 0.00 | 0.15 | 0.05 | 95 | 1013.6 |
| 20260505080100 | 13 | 328 | 0.0 | 0.0 | 0.00 | 0.15 | 0.05 | 97 | 1013.6 |
| 20260505074611 | 12 | 65 | 0.0 | 0.0 | 0.00 | 0.15 | 0.05 | 96 | 1013.8 |
| 20260505073056 | 12 | 270 | 0.0 | 0.0 | 0.00 | 0.15 | 0.05 | 97 | 1013.7 |
| 20260505071551 | 11 | 288 | 0.0 | 0.0 | 0.00 | 0.15 | 0.05 | 97 | 1013.6 |
| 20260505070052 | 10 | 275 | 0.0 | 0.0 | 0.03 | 0.15 | 0.05 | 98 | 1013.6 |
| 20260505064547 | 9 | 275 | 0.0 | 0.0 | 0.03 | 0.15 | 0.05 | 97 | 1013.5 |
| 20260505063050 | 9 | 275 | 0.0 | 0.0 | 0.03 | 0.15 | 0.05 | 97 | 1013.4 |
| 20260505061609 | 8 | 275 | 0.0 | 0.0 | 0.03 | 0.15 | 0.05 | 98 | 1013.2 |
| 20260505060046 | 7 | 275 | 0.0 | 0.0 | 0.00 | 0.15 | 0.03 | 97 | 1013.0 |
| 20260505054554 | 7 | 275 | 0.0 | 0.0 | 0.00 | 0.15 | 0.03 | 96 | 1012.8 |
| 20260505053037 | 7 | 277 | 0.0 | 0.0 | 0.00 | 0.15 | 0.03 | 97 | 1012.6 |
| 20260505051536 | 7 | 278 | 0.0 | 0.0 | 0.00 | 0.15 | 0.03 | 97 | 1012.4 |
| 20260505041527 | 7 | 76 | 0.0 | 0.0 | 0.00 | 0.15 | 0.03 | 96 | 1012.2 |
| 20260505040024 | 8 | 48 | 0.0 | 0.0 | 0.00 | 0.15 | 0.03 | 96 | 1012.0 |
| 20260505034523 | 8 | 21 | 0.0 | 0.0 | 0.00 | 0.15 | 0.03 | 96 | 1011.9 |
| 20260505033033 | 8 | 242 | 0.0 | 0.0 | 0.00 | 0.15 | 0.03 | 96 | 1011.8 |
| 20260505031521 | 9 | 242 | 0.0 | 0.0 | 0.00 | 0.15 | 0.03 | 97 | 1011.6 |
| 20260505030021 | 8 | 246 | 0.0 | 0.0 | 0.00 | 0.15 | 0.03 | 97 | 1011.6 |
| 20260505024545 | 8 | 156 | 0.0 | 0.0 | 0.00 | 0.15 | 0.03 | 96 | 1011.7 |
| 20260505023018 | 8 | 201 | 0.0 | 0.0 | 0.00 | 0.15 | 0.03 | 96 | 1011.7 |
| 20260505021533 | 8 | 202 | 0.0 | 0.0 | 0.00 | 0.15 | 0.03 | 96 | 1011.5 |
| 20260505020015 | 8 | 202 | 0.0 | 0.0 | 0.00 | 0.15 | 0.03 | 96 | 1011.4 |
| 20260505014516 | 8 | 202 | 0.0 | 0.0 | 0.00 | 0.15 | 0.03 | 96 | 1011.4 |
| 20260505013010 | 9 | 201 | 0.0 | 0.0 | 0.00 | 0.15 | 0.03 | 96 | 1011.3 |
| 20260505011508 | 9 | 178 | 0.0 | 0.0 | 0.00 | 0.15 | 0.03 | 95 | 1011.4 |
| 20260505010005 | 10 | 282 | 0.0 | 0.0 | 0.00 | 0.15 | 0.03 | 95 | 1011.7 |
| 20260505004511 | 11 | 282 | 0.0 | 0.0 | 0.00 | 0.15 | 0.03 | 96 | 1011.7 |
| 20260505003002 | 10 | 268 | 0.0 | 0.0 | 0.00 | 0.15 | 0.03 | 96 | 1011.8 |
| 20260505001601 | 10 | 211 | 0.0 | 0.0 | 0.03 | 0.15 | 0.03 | 96 | 1011.9 |
| 20260505000059 | 10 | 170 | 0.0 | 0.0 | 0.03 | 0.15 | 0.03 | 96 | 1011.9 |
| 20260504234558 | 10 | 168 | 0.0 | 0.0 | 0.03 | 0.15 | 0.03 | 96 | 1012.0 |
| 20260504233102 | 10 | 168 | 0.0 | 0.0 | 0.03 | 0.15 | 0.03 | 96 | 1012.0 |
| 20260504231556 | 10 | 168 | 0.0 | 0.0 | 0.00 | 0.13 | 0.00 | 96 | 1012.1 |
| 20260504230056 | 10 | 168 | 0.0 | 0.0 | 0.00 | 0.13 | 0.00 | 96 | 1012.0 |
| 20260504224553 | 10 | 168 | 0.0 | 0.0 | 0.00 | 0.13 | 0.00 | 96 | 1012.0 |
| 20260504223055 | 10 | 168 | 0.0 | 0.0 | 0.00 | 0.13 | 0.00 | 96 | 1012.0 |
| 20260504221556 | 10 | 221 | 0.0 | 0.0 | 0.00 | 0.13 | 0.00 | 95 | 1011.9 |
| 20260504220103 | 10 | 222 | 0.0 | 0.0 | 0.00 | 0.13 | 0.00 | 95 | 1011.9 |
| 20260504214545 | 10 | 222 | 0.0 | 0.0 | 0.00 | 0.13 | 0.13 | 95 | 1012.0 |
| 20260504213045 | 11 | 226 | 0.0 | 0.0 | 0.00 | 0.13 | 0.13 | 95 | 1012.1 |
| 20260504211541 | 11 | 229 | 0.0 | 0.0 | 0.00 | 0.13 | 0.13 | 95 | 1012.2 |
| 20260504210041 | 11 | 126 | 0.0 | 0.0 | 0.00 | 0.13 | 0.13 | 95 | 1012.3 |
| 20260504204557 | 11 | 126 | 0.0 | 0.0 | 0.00 | 0.13 | 0.13 | 95 | 1012.2 |
| 20260504203038 | 11 | 126 | 0.0 | 0.0 | 0.00 | 0.13 | 0.13 | 95 | 1012.0 |
| 20260504201536 | 12 | 127 | 0.0 | 0.0 | 0.00 | 0.13 | 0.13 | 95 | 1011.9 |
| 20260504200042 | 12 | 126 | 0.0 | 0.0 | 0.00 | 0.13 | 0.13 | 95 | 1011.8 |
| 20260504194540 | 12 | 127 | 0.0 | 0.0 | 0.00 | 0.13 | 0.13 | 95 | 1011.7 |